STARLINK-11503, 63142

Orbit data source: Space-Track

STARLINK-11503, 63142 is a payload satellite owned by SpaceX/Seattle (US) in LEO that was launched on Mon, 03 Mar 2025 UTC via an FALCON 9 launch vehicle from the Air Force Eastern Test Range (AFETR). Payload-class satellites include a variety of spacecraft equipped with specific instruments for various scientific and technological missions. These include communications satellites like Starlink; space stations such as the ISS; scientific satellites like the Hubble; Earth observation satellites from companies like Planet Labs, Umbra, and HawkEye 360; GPS; miniature CubeSats for education and research; and military/defense satellites.

Loading next visibility...
Identifier
63142, 2025-043L
Orbit
LEO
Last TLE update
1 day ago
Origin
Manufacturer
SpaceX/Seattle
Mission
Operational Commercial Communications
Bus & Motor
STARLINK V2M, Unknown motor
Mass
730 kg wet, ~700 kg dry
Launch date (UTC)
2025-03-03 (4 months ago)
Launch vehicle
FALCON 9
Launch site
Air Force Eastern Test Range (AFETR)
Object type
Payload
Rocket body
Debris
Shape & HBR
Box + 2 Pan, 29 m
Radar Cross Section
36.964 m², Large (>1 m²)

Expand to show TLE details & history

TLE from 1 day ago
0 STARLINK-11503
1 63142U 25043L   25181.56264598  .00145009  00000-0  11132-2 0  9991
2 63142  43.0010 330.0453 0005341 285.4248  74.6030 15.70842809 19644
Epoch: 2025-06-30T13:30Z
TLE epoch observation values (Epoch: 2025-06-30T13:30:12.612Z)
Latitude
0.00001°
Longitude
-151.37791°
Altitude
355.305 km
Speed
7.698 km/s
True Right ascension
22h 00m 10s
True Declination
0° 00' 00"
Sunlit
Object was in full shadow at epoch
Visualization orbit readout
Latitude
-41.89957°
Longitude
95.68051°
Altitude
365.542 km
Speed
7.692 km/s
Apparent Right ascension
13h 48m 40s
Apparent Declination
-41° 11' 26"
Sunlit
Object is in full shadow
Visualization observer readout
Local Sidereal Time
01:07:53
Azimuth
257.364° W
Elevation
-82.153°
Doppler factor
1
Orbital elements
Apogee altitude
362.066 km
Perigee altitude
354.87 km
Semi-major axis
6,736.605 km
Eccentricity
0.00053
Inclination
43.001°
RAAN
330.0453°
Arg. of periapsis
285.4248°
True anomaly
Unknown
Mean anomaly
74.603°
Eccentric anomaly
Unknown
Mean motion
3.92538 °/min
Orbital period
91.71 mins
BSTAR
0.0011132
Loading maneuver chart data...
Loading SW <> Apogee altitude chart data...
Loading historical data...
Loading historical data...
Loading historical data...
Loading historical data...
Loading historical data...
Loading historical data...
Loading historical data...

STARLINK-11503 Visibility forecast

Observer location: undefined°, undefined°

Span
Click to sort rows by Start time (UTC) header in descending order
Start Az.
Max El. time (UTC)
Max El. Az.
Max El.
End time (UTC)
End Az.
4 mins2025-07-01 14:10:56.261Z252.682° W2025-07-01 14:12:56.261Z7.45° NNE44.955°2025-07-01 14:14:56.261Z71.011° E
4 mins2025-07-01 15:47:56.261Z303.02° NW2025-07-01 15:48:56.261Z343.335° N33.813°2025-07-01 15:51:56.261Z72.794° E
4 mins2025-07-01 17:23:56.261Z293.34° NW2025-07-01 17:25:56.261Z84.798° E40.019°2025-07-01 17:27:56.261Z102.432° ESE
|